User: anonymous
Location: Caltech
(34.1382°N, 118.1253°W)
Time: 20:50:35
(UTC-07:00)
Language:

GPS 2-04 Rocket1 - Orbit

View from above orbital plane
View from above orbital plane
View from above satellite
View from above satellite

Ground track
Ground track

The orbit data is extracted from the following two-line orbital elements,

1 20303U 89085B   14106.81166110  .00012042  00000-0  59179-3 0  7625
2 20303 035.6339 004.9899 0142236 109.5242 305.2305 15.08818240324610
Epoch (UTC): 16 April 2014 19:28:47
Eccentricity: 0.0142236
inclination: 35.6339°
perigee height: 441 km
apogee height: 638 km
right ascension of ascending node: 4.9899°
argument of perigee: 109.5242°
revolutions per day: 15.08818240
mean anomaly at epoch: 305.2305°
orbit number at epoch: 32461

The dashed part of the orbit path shows where the satellite is in the earth's shadow,  

DLR